Regional Weather Roundup
Issued by NWS Sterling, VA

Home | Current Version | Previous Version | Text Only | Print | Product List | Glossary On
Versions: 1 2 3 4 5 6 7 8 9 10 11 12 13 14 15 16 17 18 19 20 21 22 23 24 25 26 27 28 29 30 31 32 33 34 35 36 37 38 39 40 41 42 43 44 45 46 47 48 49 50
000
ASUS41 KLWX 221611
RWRLWX

REGIONAL WEATHER ROUNDUP
NATIONAL WEATHER SERVICE BALTIMORE MD/WASHINGTON DC
1200 PM EDT SUN OCT 22 2017

Note: "FAIR" indicates few or no clouds below 12,000 feet
with no significant weather and/or obstructions to visibility.
 TC=TEMPERATURE CELSIUS

 * =Non NWS site. Station does not report precipitation (e.g. rain,
    snow, etc.), thunder, or fog.

DCZ001-MDZ009-015-VAZ040>042-051-053>054-221700-
WASHINGTON METRO

CITY           SKY/WX    TMP DP  RH WIND       PRES   REMARKS
WASHINGTON NAT PTSUNNY   71  55  56 CALM      30.38F
DULLES         MOSUNNY   71  56  58 SW3       30.37F
ANDREWS AFB    SUNNY     71  52  50 E3        30.37F
FT BELVOIR     SUNNY     70  55  58 S7        30.37F
QUANTICO       MOSUNNY   66  61  84 SW6       30.39F
COLLEGE PARK*  SUNNY     70  50  48 SE3       30.38F
LEESBURG*      SUNNY     68  55  64 CALM      30.38F
MANASSAS*      SUNNY     71  57  61 CALM      30.37F
GAITHERSBURG*  SUNNY     71  55  56 SE8       30.38F

$$

MDZ006>007-011-014-221700-
BALTIMORE METRO

CITY           SKY/WX    TMP DP  RH WIND       PRES   REMARKS
BWI AIRPORT    MOSUNNY   70  53  54 SE5       30.38F
MD SCIENCE CTR   N/A     69  57  65 MISG      30.39F
MARTIN STATE   MOSUNNY   68  61  77 SW3       30.41F
ANNAPOLIS      SUNNY     65  64  97 SE9       30.39F FOG
FORT MEADE*    SUNNY     68  52  56 E5        30.41F

$$

MDZ012-015-019>023-221700-
MARYLAND EASTERN SHORE

CITY           SKY/WX    TMP DP  RH WIND       PRES   REMARKS
OCEAN CITY     SUNNY     70  58  65 SE7       30.41S
SALISBURY      SUNNY     72  58  61 E6        30.39F
CAMBRIDGE*     SUNNY     72  57  60 SE6       30.40S
EASTON*        MOSUNNY   73  52  46 S6        30.43F

$$

MDZ017>025-221700-
SOUTHERN MARYLAND

CITY           SKY/WX    TMP DP  RH WIND       PRES   REMARKS
PATUXENT RIVER PTSUNNY   70  62  76 SE9       30.39F
ST INIGOES     MOSUNNY   72  61  68 CALM      30.38F
LEONARDTOWN*   NOT AVBL

$$

MDZ003>005-221700-
NORTH CENTRAL MARYLAND

CITY           SKY/WX    TMP DP  RH WIND       PRES   REMARKS
FREDERICK*     SUNNY     68  48  49 CALM      30.40F
HAGERSTOWN APT SUNNY     69  54  58 CALM      30.35F
WESTMINSTER*   SUNNY     70  54  56 S6        30.38F

$$

MDZ501>502-221700-
WESTERN MARYLAND

CITY           SKY/WX    TMP DP  RH WIND       PRES   REMARKS
OAKLAND*       SUNNY     64  48  55 E5        30.33F
CUMBERLAND*    SUNNY     64  52  63 CALM      30.38F

$$

VAZ025>031-221700-
SHENANDOAH VALLEY

CITY           SKY/WX    TMP DP  RH WIND       PRES   REMARKS
WINCHESTER*    SUNNY     66  52  59 CALM      30.36S
FRONT ROYAL*   SUNNY     68  54  60 CALM      30.35S
LURAY*         SUNNY     70  54  56 SW7       30.36S
NEW MARKET*    SUNNY     70  53  54 CALM      30.35S
STAUNTON*      SUNNY     71  52  51 SW6       30.38F
WAYNESBORO*    SUNNY     71  53  53 SE6       30.37S

$$

WVZ021-048>050-054>055-221700-
EASTERN WEST VIRGINIA PANHANDLE

CITY           SKY/WX    TMP DP  RH WIND       PRES   REMARKS
MARTINSBURG    SUNNY     68  51  54 CALM      30.35F
PETERSBURG*    SUNNY     65  52  64 CALM      30.34F

$$

VAZ036>039-050-221700-
CENTRAL FOOTHILLS

CITY           SKY/WX    TMP DP  RH WIND       PRES   REMARKS
CHARLOTTESVILL SUNNY     71  55  56 CALM      30.37S
CULPEPER*      SUNNY     70  54  55 E3        30.38F
ORANGE*        SUNNY     70  55  60 CALM      30.37F
GORDONSVILLE*  SUNNY     70  58  65 CALM      30.36F
WARRENTON*     SUNNY     73  53  50 E3        30.36F

$$

VAZ055>057-221700-
NORTH AND CENTRAL PIEDMONT

CITY           SKY/WX    TMP DP  RH WIND       PRES   REMARKS
FREDERICKSBRG* SUNNY     71  59  67 E5        30.37F
STAFFORD*      SUNNY     70  58  65 SE3       30.42F

$$

NCZ024-NYZ072-PAZ021-071-VAZ022-071-221700-
OTHER REGIONAL OBSERVATIONS

CITY           SKY/WX    TMP DP  RH WIND       PRES   REMARKS
NEW YORK CITY  SUNNY     73  42  32 CALM      30.43S
PHILADELPHIA   PTSUNNY   70  54  56 CALM      30.41F
PITTSBURGH     PTSUNNY   69  52  54 S9        30.29F
ROANOKE        MOSUNNY   67  54  63 SE6       30.39F
RICHMOND       MOSUNNY   71  58  63 CALM      30.38F
RALEIGH        MOSUNNY   73  57  57 SE7       30.37F

$$

ANZ530>537-221700-
MARINE OBSERVATIONS

STATION/POSITION TIME  TEMP    WIND        PRES
                       AIR SEA DIR/SP/G
                 (UTC) (F)     (DEG/KT/KT) (MB)
THOMAS PT LIGHT  1600   61 67  140/  6/  7   N/A
BALT KEY BRIDGE  1548   63     110/  8/  9 1029.1F
COVE POINT       1548   65     160/  7/  8 1029.9F
LEWISETTA        1548   67 66   90/  6/  8 1028.9F
SOLOMONS ISLAND  1548   66 69   80/  7/  8 1028.7F
PINEY POINT      1536          160/  6/  6   N/A

$$




USA.gov is the U.S. government's official web portal to all federal, state and local government web resources and services.